• In Deutschland
  • Länderverzeichnis
  • Für 7 Tage
  • Wassertemperatur
  • Satellitenkarten
  • Wetterkarte
  • Widgets
  • user-avatar
    Anmelden

    Stündliche Wetter Orvieto

    Heute, 19 September, Mittwoch

    Zeit Temperatur Niederschläge Wind Luftdruck Luftfeuchtigkeit
    00:00 +22°C° 0.1 mm 1 m/S 745 mmHg 84%
    01:00 +22°C° 0.1 mm 1 m/S 745 mmHg 85%
    02:00 +22°C° 0.1 mm 1 m/S 744 mmHg 86%
    03:00 +21°C° 0.1 mm 1 m/S 744 mmHg 86%
    04:00 +21°C° 0.1 mm 1 m/S 744 mmHg 87%
    05:00 +22°C° 0.1 mm 1 m/S 744 mmHg 86%
    06:00 +22°C° 0.1 mm 1 m/S 744 mmHg 84%
    07:00 +22°C° 0.1 mm 1 m/S 744 mmHg 83%
    08:00 +24°C° 0.1 mm 1 m/S 745 mmHg 74%
    09:00 +26°C° 0.1 mm 1 m/S 745 mmHg 66%
    10:00 +28°C° 0.1 mm 2 m/S 745 mmHg 58%
    11:00 +28°C° 0.4 mm 2 m/S 745 mmHg 56%
    12:00 +29°C° 0.4 mm 2 m/S 745 mmHg 55%
    13:00 +29°C° 0.4 mm 2 m/S 745 mmHg 53%
    14:00 +28°C° 0.9 mm 2 m/S 745 mmHg 58%
    15:00 +28°C° 0.9 mm 2 m/S 744 mmHg 64%
    16:00 +27°C° 0.9 mm 1 m/S 744 mmHg 69%
    17:00 +26°C° 0.8 mm 1 m/S 744 mmHg 73%
    18:00 +25°C° 0.8 mm 1 m/S 744 mmHg 78%
    19:00 +21°C° 0.8 mm 0 m/S 744 mmHg 83%
    20:00 +23°C° 0.2 mm 1 m/S 744 mmHg 84%
    21:00 +23°C° 0.2 mm 1 m/S 744 mmHg 85%
    22:00 +23°C° 0.2 mm 1 m/S 745 mmHg 86%
    23:00 +22°C° 0.2 mm 1 m/S 744 mmHg 87%

    Morgen, 20 September, Donnerstag

    Zeit Temperatur Niederschläge Wind Luftdruck Luftfeuchtigkeit
    00:00 +22°C° 0.2 mm 1 m/S 744 mmHg 88%
    01:00 +22°C° 0.2 mm 1 m/S 744 mmHg 89%
    02:00 +21°C° 0.1 mm 1 m/S 744 mmHg 90%
    03:00 +21°C° 0.1 mm 1 m/S 744 mmHg 90%
    04:00 +21°C° 0.1 mm 1 m/S 743 mmHg 91%
    05:00 +20°C° 0 mm 2 m/S 743 mmHg 90%
    06:00 +20°C° 0 mm 2 m/S 744 mmHg 88%
    07:00 +21°C° 0 mm 2 m/S 744 mmHg 87%
    08:00 +24°C° 0.1 mm 2 m/S 744 mmHg 78%
    09:00 +26°C° 0.1 mm 2 m/S 744 mmHg 69%
    10:00 +28°C° 0.1 mm 2 m/S 744 mmHg 60%
    11:00 +29°C° 0.3 mm 2 m/S 744 mmHg 56%
    12:00 +30°C° 0.3 mm 2 m/S 744 mmHg 52%
    13:00 +31°C° 0.3 mm 2 m/S 744 mmHg 48%
    14:00 +30°C° 0.3 mm 2 m/S 744 mmHg 50%
    15:00 +29°C° 0.3 mm 2 m/S 744 mmHg 52%
    16:00 +29°C° 0.3 mm 2 m/S 743 mmHg 53%
    17:00 +27°C° 0.4 mm 1 m/S 743 mmHg 60%
    18:00 +26°C° 0.4 mm 1 m/S 743 mmHg 67%
    19:00 +24°C° 0.4 mm 1 m/S 743 mmHg 74%
    20:00 +24°C° 0.1 mm 1 m/S 743 mmHg 76%
    21:00 +23°C° 0.1 mm 1 m/S 743 mmHg 78%
    22:00 +21°C° 0.1 mm 0 m/S 743 mmHg 80%
    23:00 +22°C° 0.1 mm 1 m/S 743 mmHg 81%

    übermorgen, 21 September, Freitag

    Zeit Temperatur Niederschläge Wind Luftdruck Luftfeuchtigkeit
    00:00 +22°C° 0.1 mm 1 m/S 743 mmHg 81%
    01:00 +22°C° 0.1 mm 1 m/S 743 mmHg 82%
    02:00 +22°C° 0 mm 1 m/S 743 mmHg 82%
    03:00 +21°C° 0 mm 1 m/S 743 mmHg 83%
    04:00 +21°C° 0 mm 1 m/S 742 mmHg 83%
    05:00 +22°C° 0 mm 1 m/S 742 mmHg 82%
    06:00 +22°C° 0 mm 1 m/S 743 mmHg 80%
    07:00 +22°C° 0 mm 1 m/S 743 mmHg 78%
    08:00 +24°C° 0 mm 1 m/S 743 mmHg 69%
    09:00 +27°C° 0 mm 1 m/S 743 mmHg 60%
    10:00 +29°C° 0 mm 1 m/S 743 mmHg 50%
    11:00 +30°C° 0 mm 2 m/S 743 mmHg 47%
    12:00 +30°C° 0 mm 2 m/S 743 mmHg 44%
    13:00 +31°C° 0 mm 3 m/S 743 mmHg 41%
    14:00 +31°C° 0.1 mm 3 m/S 743 mmHg 43%
    15:00 +30°C° 0.1 mm 3 m/S 742 mmHg 45%
    16:00 +30°C° 0.1 mm 3 m/S 742 mmHg 47%
    17:00 +28°C° 0 mm 3 m/S 742 mmHg 56%
    18:00 +26°C° 0 mm 2 m/S 742 mmHg 65%
    19:00 +24°C° 0 mm 2 m/S 742 mmHg 73%
    20:00 +23°C° 0 mm 2 m/S 743 mmHg 77%
    21:00 +23°C° 0 mm 1 m/S 743 mmHg 81%
    22:00 +22°C° 0 mm 1 m/S 743 mmHg 85%
    23:00 +22°C° 0 mm 1 m/S 743 mmHg 86%

    22 September, Samstag

    Zeit Temperatur Niederschläge Wind Luftdruck Luftfeuchtigkeit
    00:00 +21°C° 0 mm 1 m/S 743 mmHg 87%
    01:00 +21°C° 0 mm 1 m/S 743 mmHg 89%
    02:00 +21°C° 0 mm 1 m/S 743 mmHg 89%
    03:00 +21°C° 0 mm 1 m/S 742 mmHg 89%
    04:00 +20°C° 0 mm 1 m/S 742 mmHg 89%
    05:00 +21°C° 0 mm 1 m/S 742 mmHg 87%
    06:00 +20°C° 0 mm 2 m/S 743 mmHg 85%
    07:00 +21°C° 0 mm 2 m/S 743 mmHg 83%
    08:00 +24°C° 0 mm 2 m/S 743 mmHg 74%
    09:00 +26°C° 0 mm 3 m/S 743 mmHg 66%
    10:00 +28°C° 0 mm 4 m/S 743 mmHg 57%
    11:00 +29°C° 0 mm 4 m/S 743 mmHg 55%
    12:00 +29°C° 0 mm 4 m/S 743 mmHg 52%
    13:00 +30°C° 0 mm 4 m/S 743 mmHg 50%
    14:00 +30°C° 0 mm 4 m/S 743 mmHg 52%
    15:00 +29°C° 0 mm 4 m/S 742 mmHg 55%
    16:00 +29°C° 0 mm 4 m/S 742 mmHg 57%
    17:00 +27°C° 0.1 mm 3 m/S 743 mmHg 67%
    18:00 +25°C° 0.1 mm 3 m/S 743 mmHg 76%
    19:00 +23°C° 0.1 mm 2 m/S 743 mmHg 86%
    20:00 +23°C° 0.1 mm 2 m/S 744 mmHg 88%
    21:00 +21°C° 0.1 mm 2 m/S 744 mmHg 90%
    22:00 +22°C° 0.1 mm 1 m/S 744 mmHg 92%
    23:00 +22°C° 0 mm 1 m/S 744 mmHg 92%

    23 September, Sonntag

    Zeit Temperatur Niederschläge Wind Luftdruck Luftfeuchtigkeit
    00:00 +20°C° 0 mm 2 m/S 744 mmHg 92%
    01:00 +20°C° 0 mm 2 m/S 744 mmHg 92%
    02:00 +20°C° 0 mm 2 m/S 744 mmHg 92%
    03:00 +20°C° 0 mm 2 m/S 744 mmHg 91%
    04:00 +20°C° 0 mm 2 m/S 744 mmHg 91%
    05:00 +20°C° 0 mm 2 m/S 744 mmHg 90%
    06:00 +19°C° 0 mm 2 m/S 744 mmHg 89%
    07:00 +19°C° 0 mm 2 m/S 744 mmHg 88%
    08:00 +21°C° 0 mm 2 m/S 745 mmHg 80%
    09:00 +24°C° 0 mm 2 m/S 745 mmHg 71%
    10:00 +26°C° 0 mm 2 m/S 745 mmHg 62%
    11:00 +27°C° 0 mm 3 m/S 745 mmHg 58%
    12:00 +28°C° 0 mm 3 m/S 744 mmHg 53%
    13:00 +29°C° 0 mm 3 m/S 744 mmHg 49%
    14:00 +29°C° 0 mm 4 m/S 744 mmHg 50%
    15:00 +28°C° 0 mm 4 m/S 743 mmHg 52%
    16:00 +28°C° 0 mm 4 m/S 743 mmHg 54%
    17:00 +26°C° 0 mm 4 m/S 743 mmHg 63%
    18:00 +25°C° 0 mm 3 m/S 742 mmHg 73%
    19:00 +22°C° 0 mm 3 m/S 742 mmHg 83%
    20:00 +22°C° 0 mm 3 m/S 742 mmHg 85%
    21:00 +21°C° 0 mm 3 m/S 742 mmHg 88%
    22:00 +21°C° 0 mm 3 m/S 742 mmHg 91%
    23:00 +21°C° 0 mm 4 m/S 741 mmHg 90%

    24 September, Montag

    Zeit Temperatur Niederschläge Wind Luftdruck Luftfeuchtigkeit
    00:00 +21°C° 0 mm 4 m/S 741 mmHg 88%
    01:00 +21°C° 0 mm 4 m/S 740 mmHg 87%
    02:00 +21°C° 0 mm 5 m/S 739 mmHg 85%
    03:00 +21°C° 0 mm 5 m/S 738 mmHg 84%
    04:00 +21°C° 0 mm 6 m/S 738 mmHg 83%
    05:00 +21°C° 0 mm 5 m/S 737 mmHg 83%
    06:00 +21°C° 0 mm 5 m/S 737 mmHg 83%
    07:00 +22°C° 0 mm 5 m/S 737 mmHg 83%
    08:00 +23°C° 0.1 mm 5 m/S 737 mmHg 71%
    09:00 +24°C° 0.1 mm 6 m/S 737 mmHg 59%
    10:00 +26°C° 0.1 mm 6 m/S 737 mmHg 48%
    11:00 +27°C° 0 mm 6 m/S 737 mmHg 41%
    12:00 +27°C° 0 mm 5 m/S 737 mmHg 35%
    13:00 +28°C° 0 mm 5 m/S 736 mmHg 29%
    14:00 +28°C° 0 mm 5 m/S 736 mmHg 27%
    15:00 +27°C° 0 mm 5 m/S 736 mmHg 25%
    16:00 +27°C° 0 mm 5 m/S 736 mmHg 23%
    17:00 +25°C° 0 mm 5 m/S 737 mmHg 26%
    18:00 +21°C° 0 mm 4 m/S 737 mmHg 28%
    19:00 +19°C° 0 mm 4 m/S 737 mmHg 31%
    20:00 +17°C° 0 mm 5 m/S 738 mmHg 39%
    21:00 +17°C° 0 mm 6 m/S 739 mmHg 46%
    22:00 +16°C° 0 mm 7 m/S 739 mmHg 53%
    23:00 +16°C° 0 mm 6 m/S 740 mmHg 53%
    Mehr zeigen